Showing default

LEMUR 2 ANDIS, 42838

Orbit data source: Space-Track

LEMUR 2 ANDIS, 42838 is a payload satellite owned by Spire (US) in SSO that was launched on Fri, 14 Jul 2017 UTC via a SOYUZ-2-1A launch vehicle from the Tyuratam Missile And Space Complex (TTMTR). Payload-class satellites include a variety of spacecraft equipped with specific instruments for various scientific and technological missions. These include communications satellites like Starlink; space stations such as the ISS; scientific satellites like the Hubble; Earth observation satellites from companies like Planet Labs, Umbra, and HawkEye 360; GPS; miniature CubeSats for education and research; and military/defense satellites.

Loading next visibility...
Identifier
42838, 2017-042P
Orbit
SSO
Country
Flag of USUS
Related business
Manufacturer
Spire/Glasgow
Mission
Operational Commercial Com/MetRO
Bus & Motor
CUBESAT 3U, Unknown motor
Mass
4 kg wet, 4 kg dry
Launch date (UTC)
2017-07-14 (9 years ago)
Launch vehicle
SOYUZ-2-1A
Launch site
Tyuratam Missile And Space Complex (TTMTR)
Object type
Payload
Rocket body
Debris
Shape & HBR
Box, 0.5 m
Radar Cross Section
0.093 m², Small (<0.1 m²)

Expand to show TLE details & history
Last TLE update: 14 hours ago

TLE from 14 hours ago
0 LEMUR 2 ANDIS
1 42838U 17042P   26023.47946360  .00031848  00000-0  11582-2 0  9994
2 42838  97.3624 205.1503 0009710 157.5083 202.6585 15.28146927466302
Epoch: 2026-01-23T11:30Z
TLE epoch observation values (Epoch: 2026-01-23T11:30:25.655Z)
Latitude
0.00009°
Longitude
-90.27429°
Altitude
490.603 km
Speed
7.616 km/s
True Right ascension
13h 40m 36s
True Declination
0° 00' 00"
Sunlit
Object was in daylight at epoch
Visualization orbit readout
Latitude
Unknown
Longitude
Unknown
Altitude
Unknown
Speed
Unknown
Apparent Right ascension
Unknown
Apparent Declination
Unknown
Sunlit
N/A
Visualization observer readout
Local Sidereal Time
02:53:46
Azimuth
Unknown
Elevation
Unknown
Doppler factor
Unknown
Orbital elements
Apogee altitude
484.963 km
Perigee altitude
471.648 km
Semi-major axis
6,856.442 km
Eccentricity
0.00097
Inclination
97.3624°
RAAN
205.1503°
Arg. of periapsis
157.5083°
True anomaly
202.61568°
Mean anomaly
202.6585°
Eccentric anomaly
202.63709°
Mean motion
3.82292 °/min
Orbital period
94.17 mins
BSTAR
0.0011582
Loading maneuver chart data...
Computing Atmospheric mass density...

Documentation

Showing up to 5 results
|